User: anonymous   Login
Location: Franzen
(48.6167°N, 15.3833°E)
Time: 01:58:52
(UTC+00:00)
Language:

Cosmos 2221 - Orbit

View from above orbital plane
View from above orbital plane
View from above satellite
View from above satellite

Ground track
Ground track

The orbit data is extracted from the following two-line orbital elements,

1 22236U 92080A   21337.41598811  .00000461  00000-0  47244-4 0  9993
2 22236  82.5061 319.0335 0016398 354.8037   5.3008 14.88157585548678
Epoch (UTC): 03 December 2021 09:59:01
Eccentricity: 0.0016398
inclination: 82.5061°
perigee height: 592 km
apogee height: 615 km
right ascension of ascending node: 319.0335°
argument of perigee: 354.8037°
revolutions per day: 14.88157585
mean anomaly at epoch: 5.3008°
orbit number at epoch: 54867

The dashed part of the orbit path shows where the satellite is in the earth's shadow,  

DLR